Regional Weather Roundup
Issued by NWS Mt. Holly, NJ

Home | Current Version | Previous Version | Text Only | Print | Product List | Glossary On
Versions: 1 2 3 4 5 6 7 8 9 10 11 12 13 14 15 16 17 18 19 20 21 22 23 24 25 26 27 28 29 30 31 32 33 34 35 36 37 38 39 40 41 42 43 44 45 46 47 48 49 50
000
ASUS41 KPHI 011010
RWRPHI

REGIONAL WEATHER ROUNDUP
NATIONAL WEATHER SERVICE MOUNT HOLLY NJ
600 AM EDT WED OCT 01 2014

NOTE:  "FAIR" INDICATES FEW OR NO CLOUDS BELOW 12,000 FEET WITH NO
SIGNIFICANT WEATHER AND/OR OBSTRUCTIONS TO VISIBILITY.

 * = STATION DOES NOT REPORT PRECIPITATION (E.G. RAIN, SNOW, ETC.)
        OR FOG.

NJZ015>026-011100-
SOUTHERN NEW JERSEY

CITY           SKY/WX    TMP DP  RH WIND       PRES   REMARKS
POMONA         CLOUDY    62  61  96 N10       29.96R FOG
RIO GRANDE*    CLOUDY    63  57  82 N9        29.96R
MILLVILLE      CLOUDY    62  59  90 NE9       29.96S
WRIGHTSTOWN    CLOUDY    61  61 100 N3        29.96R
MOUNT HOLLY    CLOUDY    63  58  83 NE5       29.98R
TRENTON        CLOUDY    61  57  87 N7        29.98S

$$
NJZ001>014-011100-
NORTHERN NEW JERSEY

CITY           SKY/WX    TMP DP  RH WIND       PRES   REMARKS
SUSSEX         CLOUDY    61  55  81 NE3       30.02R
ANDOVER*         N/A     57  56  96 NE3       30.02R
MORRISTOWN     CLOUDY    61  55  82 CALM      30.01R
NEWARK         CLOUDY    62  57  83 N10       30.00R
TETERBORO      CLOUDY    62  55  77 N6        29.99R
CALDWELL       CLOUDY    60  54  80 CALM      30.01R
SOMERVILLE     MOCLDY    58  56  93 CALM      29.98S
ALLAIRE*       CLOUDY    61  55  82 N8        29.98S
TOMS RIVER*    CLOUDY    61  59  94 NE3       29.98S

$$
PAZ043-044-047-054-055-060>062-066>071-011100-
EASTERN PENNSYLVANIA

CITY           SKY/WX    TMP DP  RH WIND       PRES   REMARKS
PHILADELPHIA   CLOUDY    64  58  80 NE8       29.98R
NORTH PHILA    CLOUDY    63  56  78 NE7       30.00R
BLUE BELL      PTCLDY    59  59 100 CALM      29.98S
DOYLESTOWN     MOCLDY    58  58 100 VRB3      29.99R
QUAKERTOWN*    MOCLDY    59  57  94 NE3       30.00S
POTTSTOWN      MOCLDY    59  57  93 NE6       30.00R
LANCASTER      FOG       57  57 100 CALM      29.98S VSB 1
COATESVILLE    PTCLDY    57  57 100 E3        29.99S FOG
READING        MOCLDY    61  59  93 NE3       29.98R FOG
ALLENTOWN      CLOUDY    59  56  89 NE6       30.00R FOG
MOUNT POCONO   CLOUDY    57  53  86 CALM      30.02S
HAZLETON       MOCLDY    55  55 100 CALM      30.04R
WILKES BARRE   MOCLDY    60  56  86 NE3       30.00R

$$
DEZALL-MDZ008-012-015-019-020-011100-
DELAWARE AND EASTERN MARYLAND

CITY           SKY/WX    TMP DP  RH WIND       PRES   REMARKS
WILMINGTON     MOCLDY    61  58  90 N5        29.97F
DOVER          CLOUDY    62  62 100 N6        29.95R
GEORGETOWN     CLOUDY    65  62  90 NE7       29.96R
EASTON         CLOUDY    63  63 100 CALM      30.00R
PATUXENT       MOCLDY    64  61  90 E5        29.95S
OCEAN CITY     PTCLDY   N/A N/A N/A N5        29.93S HAZE
WALLOPS ISLAND CLEAR     62  60  93 N7        29.94R
CAMBRIDGE      CLOUDY    63  59  88 N6        29.95R
SALISBURY      CLOUDY    64  61  88 N5        29.94S

$$
PAZ001-021-NYZ056-072-MDZ011-DCZ001-011100-
OTHER NEARBY LOCATIONS

CITY           SKY/WX    TMP DP  RH WIND       PRES   REMARKS
HARRISBURG     CLOUDY    60  58  92 NE5       29.98R FOG
STATE COLLEGE  FOG       52  52 100 CALM      29.99S VSB 1/8
WILLIAMSPORT   CLOUDY    60  58  92 CALM      29.98S
BINGHAMTON     CLOUDY    58  57  97 E5        30.02S FOG
NEW YORK CITY  CLOUDY    63  56  78 CALM      30.02S
BALTIMORE      MOCLDY    62  60  93 E6        29.96S
WASHINGTON DC  LGT RAIN  67  60  78 NE8       29.97S

$$


USA.gov is the U.S. government's official web portal to all federal, state and local government web resources and services.